Location: Regensburg
(49.0167°N, 12.1000°E)
Time: 17:31:19
(UTC+01:00)

Envisat - Visible Passes

Search period start: 30 November 2021 00:00
Search period end: 10 December 2021 00:00
Orbit: 764 x 766 km, 98.2° (Epoch: 29 November)

Date Brightness Start Highest point End Pass type
(mag) Time Alt. Az. Time Alt. Az. Time Alt. Az.
30 Nov 5.6 04:03:26 10° NE 04:06:54 18° E 04:10:20 10° SE visible
30 Nov 2.9 05:41:21 10° N 05:46:26 69° WNW 05:51:28 10° SSW visible
30 Nov 4.8 17:00:27 10° SSW 17:05:05 35° W 17:09:45 10° NNW visible
01 Dec 3.5 05:04:30 10° NNE 05:09:33 59° E 05:14:33 10° S visible
01 Dec 4.0 06:44:15 10° N 06:48:11 23° WNW 06:52:06 10° WSW visible
01 Dec 6.4 18:07:08 10° W 18:08:00 10° W 18:08:52 10° WNW visible
02 Dec 4.8 04:28:02 10° NNE 04:32:28 29° E 04:36:52 10° SSE visible
02 Dec 3.3 06:06:50 10° N 06:11:38 43° WNW 06:16:24 10° SW visible
02 Dec 5.7 17:26:43 10° SW 17:30:37 22° W 17:34:33 10° NW visible
03 Dec 5.8 03:52:25 10° NE 03:55:11 15° E 03:57:57 10° ESE visible
03 Dec 2.9 05:29:46 10° NNE 05:34:53 85° WNW 05:39:58 10° SSW visible
03 Dec 4.5 07:10:19 10° NNW 07:13:10 15° NW 07:16:01 10° W visible
03 Dec 4.4 16:48:37 10° S 16:53:27 44° W 16:58:20 10° NNW visible
04 Dec 3.9 04:53:01 10° NNE 04:57:57 48° E 05:02:50 10° S visible
04 Dec 3.8 06:32:29 10° N 06:36:45 28° WNW 06:40:59 10° WSW visible
04 Dec 6.1 17:53:50 10° WSW 17:56:15 13° W 17:58:41 10° WNW visible
05 Dec 5.2 04:16:44 10° NE 04:20:49 24° E 04:24:53 10° SE visible
05 Dec 3.1 05:55:11 10° N 06:00:08 53° WNW 06:05:03 10° SW visible
05 Dec 5.3 17:14:40 10° SSW 17:18:57 27° W 17:23:15 10° NW visible
06 Dec 6.0 03:41:47 10° ENE 03:43:27 11° E 03:45:08 10° ESE visible
06 Dec 3.0 05:18:12 10° NNE 05:23:20 79° ESE 05:28:25 10° S visible
06 Dec 4.3 06:58:22 10° NNW 07:01:46 18° WNW 07:05:09 10° W visible
07 Dec 4.3 04:41:34 10° NNE 04:46:20 38° E 04:51:03 10° SSE visible
07 Dec 3.6 06:20:45 10° N 06:25:17 33° WNW 06:29:47 10° SW visible
07 Dec 5.9 17:41:20 10° SW 17:44:32 17° W 17:47:47 10° NW visible
08 Dec 5.4 04:05:30 10° NE 04:09:08 19° E 04:12:44 10° SE visible
08 Dec 2.9 05:43:34 10° N 05:48:37 65° WNW 05:53:38 10° SSW visible
08 Dec 4.9 17:02:43 10° SSW 17:07:18 33° W 17:11:54 10° NNW visible
09 Dec 3.4 05:06:41 10° NNE 05:11:45 63° ESE 05:16:47 10° S visible
09 Dec 4.1 06:46:31 10° N 06:50:20 22° WNW 06:54:09 10° WSW visible
